GEFSMA_prec_meanprecacc_096.txt.gz
Total_Precipitation_Accumulation
0.58 0.62 0.61 0.68 0.60 0.70 0.91 1.13 1.07 1.27 1.35 1.26 1.11 1.02 1.01 0.96 0.83 0.96 1.06 1.01 0.96 1.08 1.60 1.97 1.99 1.92 1.73 1.48 1.32 1.24 1.15 1.00 0.84 0.62 0.54 0.55 0.58 0.63 0.55 0.43 0.36 0.29 0.23
0.98 0.98 0.87 0.89 0.82 0.89 1.08 1.27 1.24 1.48 1.37 1.32 1.09 1.09 1.04 0.97 0.92 1.08 1.18 1.21 1.15 1.19 1.43 1.82 2.08 2.09 1.93 1.67 1.44 1.27 1.22 1.17 1.04 0.77 0.61 0.59 0.63 0.68 0.64 0.55 0.45 0.35 0.27
1.20 1.19 1.06 1.00 1.12 1.22 1.36 1.33 1.39 1.57 1.40 1.30 1.17 1.13 1.01 0.91 0.88 1.05 1.19 1.31 1.17 1.13 1.30 1.62 1.94 1.96 1.86 1.75 1.57 1.44 1.34 1.26 1.21 0.98 0.73 0.62 0.61 0.64 0.65 0.62 0.53 0.39 0.27
1.40 1.51 1.28 1.14 1.39 1.50 1.57 1.65 1.59 1.58 1.54 1.42 1.29 1.09 1.02 0.93 0.83 0.90 0.96 1.10 1.17 0.95 1.11 1.46 1.58 1.52 1.60 1.73 1.77 1.85 1.76 1.54 1.41 1.18 0.90 0.74 0.69 0.68 0.66 0.64 0.56 0.41 0.25
1.60 1.78 1.60 1.57 1.70 1.82 1.75 1.64 1.86 1.89 1.73 1.60 1.35 1.23 0.95 0.85 0.82 0.80 0.82 0.88 1.01 0.98 0.91 1.02 1.25 1.24 1.40 1.72 1.93 2.13 2.17 2.01 1.75 1.48 1.21 1.02 0.94 0.83 0.71 0.66 0.60 0.42 0.27
1.89 2.11 1.88 1.87 2.01 2.07 2.01 1.99 2.06 2.03 1.90 1.87 1.52 1.25 1.00 0.80 0.78 0.74 0.69 0.74 0.76 0.68 0.67 0.73 0.85 0.78 0.87 1.15 1.49 1.87 2.22 2.42 2.24 1.85 1.66 1.53 1.40 1.16 0.86 0.68 0.57 0.48 0.36
1.99 2.23 1.95 2.17 2.27 2.22 2.22 2.17 2.26 2.13 1.96 2.07 1.84 1.36 0.92 0.68 0.57 0.52 0.52 0.56 0.53 0.60 0.70 0.84 0.94 1.01 0.94 0.86 0.98 1.26 1.84 2.40 2.52 2.26 2.15 2.07 1.94 1.61 1.11 0.82 0.57 0.45 0.41
1.98 2.10 2.31 2.34 2.38 2.33 2.28 2.20 2.18 1.98 1.78 1.97 1.92 1.65 1.13 0.79 0.58 0.50 0.57 0.56 0.58 0.63 0.63 0.72 0.88 1.08 1.05 1.07 1.10 0.92 1.37 2.06 2.44 2.54 2.66 2.66 2.47 1.94 1.39 1.03 0.70 0.51 0.45
2.09 2.21 2.35 2.40 2.29 2.20 2.15 2.18 2.10 1.94 1.75 1.77 1.88 1.81 1.41 1.02 0.73 0.53 0.56 0.62 0.77 0.79 0.65 0.62 0.63 0.65 0.71 0.93 1.27 1.15 1.07 1.27 1.62 2.28 2.81 3.05 2.74 1.97 1.44 1.19 0.98 0.70 0.52
1.88 1.98 2.04 2.18 2.22 2.19 2.06 1.95 1.91 1.90 1.80 1.63 1.73 1.75 1.64 1.41 1.16 0.75 0.53 0.53 0.68 0.75 0.70 0.62 0.59 0.59 0.64 0.88 1.16 1.12 0.94 0.78 0.78 1.27 1.96 2.32 2.24 1.73 1.38 1.28 1.29 1.07 0.73
1.76 1.74 1.82 2.00 2.05 1.96 1.89 1.95 2.01 1.91 1.74 1.56 1.59 1.62 1.70 1.65 1.45 1.15 0.76 0.64 0.63 0.59 0.66 0.64 0.56 0.55 0.65 0.85 1.02 0.88 0.84 0.67 0.58 0.62 0.91 1.28 1.48 1.41 1.28 1.35 1.52 1.49 1.21
1.71 1.64 1.64 1.74 1.81 1.78 1.74 1.75 1.80 1.76 1.65 1.64 1.62 1.58 1.56 1.50 1.47 1.43 1.10 0.89 0.76 0.54 0.53 0.55 0.57 0.56 0.62 0.72 0.70 0.70 0.70 0.58 0.53 0.50 0.52 0.66 0.86 0.98 1.06 1.25 1.50 1.60 1.55
1.66 1.61 1.55 1.49 1.48 1.49 1.56 1.68 1.68 1.68 1.70 1.72 1.65 1.63 1.52 1.41 1.45 1.45 1.27 1.02 0.88 0.62 0.60 0.54 0.54 0.56 0.54 0.65 0.69 0.71 0.62 0.49 0.47 0.46 0.47 0.49 0.58 0.68 0.81 0.99 1.24 1.46 1.57
1.61 1.49 1.36 1.31 1.29 1.30 1.37 1.51 1.64 1.63 1.69 1.69 1.61 1.56 1.42 1.34 1.37 1.34 1.31 1.28 1.09 0.94 0.92 0.79 0.59 0.52 0.55 0.57 0.57 0.58 0.52 0.49 0.42 0.37 0.35 0.38 0.44 0.54 0.64 0.82 0.98 1.09 1.22
1.33 1.29 1.25 1.23 1.18 1.20 1.23 1.25 1.37 1.36 1.40 1.44 1.50 1.42 1.26 1.23 1.26 1.27 1.34 1.39 1.30 1.15 1.14 1.04 0.72 0.54 0.53 0.56 0.61 0.49 0.44 0.41 0.40 0.37 0.30 0.31 0.33 0.39 0.48 0.59 0.73 0.85 0.92
1.21 1.15 1.15 1.15 1.09 1.05 1.06 1.08 1.12 1.18 1.13 1.15 1.30 1.30 1.24 1.21 1.24 1.23 1.27 1.36 1.43 1.40 1.27 1.11 0.92 0.68 0.66 0.59 0.61 0.55 0.48 0.41 0.36 0.32 0.26 0.24 0.27 0.32 0.39 0.46 0.55 0.65 0.72
1.14 1.15 1.11 1.07 0.97 0.90 0.87 0.88 0.90 0.99 0.99 0.97 1.03 1.03 1.05 1.11 1.18 1.19 1.20 1.22 1.39 1.55 1.44 1.37 1.23 1.07 0.93 0.80 0.65 0.59 0.50 0.42 0.37 0.32 0.25 0.22 0.24 0.27 0.32 0.40 0.47 0.55 0.62
0.89 0.90 0.91 0.96 0.99 0.96 0.91 0.88 0.85 0.83 0.86 0.87 0.93 1.00 1.02 1.10 1.15 1.09 1.15 1.21 1.37 1.55 1.61 1.71 1.75 1.49 1.17 0.95 0.85 0.71 0.48 0.37 0.37 0.33 0.27 0.24 0.22 0.23 0.26 0.32 0.40 0.52 0.61
0.79 0.79 0.79 0.82 0.83 0.92 1.01 1.01 0.98 0.97 0.98 0.89 0.93 1.01 1.00 1.00 1.00 0.99 1.07 1.17 1.30 1.43 1.55 1.60 1.71 1.52 1.31 1.05 1.02 0.83 0.64 0.56 0.39 0.34 0.28 0.25 0.25 0.26 0.26 0.30 0.37 0.46 0.56
0.80 0.79 0.74 0.74 0.77 0.77 0.84 0.96 1.00 0.98 0.93 0.87 0.86 0.86 0.82 0.82 0.85 0.86 0.89 1.02 1.13 1.22 1.31 1.34 1.43 1.44 1.43 1.37 1.31 1.11 0.96 0.81 0.64 0.46 0.42 0.29 0.27 0.26 0.27 0.28 0.33 0.42 0.53
0.74 0.78 0.70 0.67 0.71 0.76 0.74 0.75 0.84 0.86 0.83 0.79 0.79 0.72 0.61 0.63 0.68 0.67 0.69 0.84 0.94 1.02 1.12 1.19 1.30 1.40 1.46 1.49 1.39 1.31 1.17 1.07 0.89 0.80 0.83 0.65 0.53 0.42 0.36 0.34 0.35 0.38 0.45
0.70 0.70 0.63 0.60 0.61 0.57 0.60 0.56 0.57 0.63 0.64 0.63 0.65 0.65 0.57 0.51 0.49 0.52 0.52 0.58 0.66 0.75 0.91 1.09 1.24 1.40 1.42 1.35 1.42 1.39 1.34 1.25 1.18 1.09 1.08 1.14 1.07 0.94 0.74 0.54 0.50 0.43 0.39
0.67 0.65 0.59 0.55 0.52 0.51 0.43 0.38 0.38 0.47 0.52 0.50 0.51 0.54 0.48 0.44 0.41 0.37 0.43 0.51 0.52 0.54 0.59 0.82 1.03 1.09 1.06 0.98 1.16 1.34 1.30 1.26 1.31 1.24 1.22 1.34 1.33 1.21 0.95 0.78 0.66 0.51 0.44
0.64 0.64 0.59 0.55 0.55 0.53 0.43 0.35 0.31 0.31 0.40 0.45 0.44 0.44 0.44 0.46 0.41 0.38 0.38 0.44 0.43 0.41 0.41 0.45 0.52 0.59 0.66 0.72 0.87 1.13 1.32 1.28 1.32 1.31 1.28 1.48 1.47 1.39 1.17 0.94 0.76 0.56 0.48
0.59 0.58 0.60 0.60 0.59 0.54 0.41 0.33 0.32 0.35 0.41 0.41 0.40 0.40 0.39 0.41 0.43 0.39 0.36 0.39 0.39 0.40 0.37 0.36 0.36 0.42 0.49 0.53 0.60 0.74 0.94 1.22 1.51 1.56 1.35 1.45 1.51 1.52 1.57 1.29 0.97 0.76 0.59
0.62 0.57 0.58 0.61 0.59 0.59 0.44 0.28 0.26 0.35 0.45 0.47 0.51 0.48 0.39 0.35 0.35 0.29 0.29 0.33 0.33 0.33 0.31 0.33 0.34 0.35 0.38 0.43 0.43 0.50 0.58 0.80 1.10 1.33 1.29 1.34 1.54 1.76 1.94 1.68 1.24 0.90 0.74

GEFSMA_prec_meanprecacc_102.txt.gz
Total_Precipitation_Accumulation
0.78 0.78 0.75 0.82 0.79 0.93 1.10 1.29 1.21 1.41 1.47 1.36 1.20 1.10 1.08 1.05 0.92 1.04 1.14 1.11 1.09 1.23 1.77 2.10 2.08 1.96 1.75 1.49 1.33 1.26 1.18 1.01 0.85 0.63 0.54 0.56 0.58 0.64 0.56 0.43 0.36 0.29 0.23
1.23 1.16 1.02 1.06 1.00 1.11 1.33 1.50 1.44 1.70 1.58 1.51 1.25 1.23 1.16 1.06 1.02 1.17 1.28 1.33 1.32 1.37 1.62 1.98 2.20 2.17 1.97 1.68 1.45 1.28 1.24 1.19 1.06 0.78 0.62 0.59 0.63 0.68 0.64 0.55 0.45 0.35 0.27
1.50 1.41 1.24 1.18 1.30 1.41 1.58 1.60 1.64 1.80 1.60 1.50 1.34 1.29 1.15 1.01 1.00 1.16 1.31 1.45 1.31 1.29 1.45 1.75 2.05 2.04 1.92 1.79 1.60 1.47 1.36 1.28 1.23 0.99 0.74 0.62 0.62 0.65 0.65 0.63 0.53 0.39 0.27
1.67 1.75 1.50 1.33 1.60 1.73 1.81 1.90 1.87 1.86 1.77 1.63 1.47 1.23 1.14 1.04 0.92 1.01 1.09 1.22 1.30 1.06 1.20 1.56 1.67 1.60 1.66 1.78 1.81 1.89 1.80 1.56 1.43 1.19 0.91 0.75 0.69 0.69 0.67 0.65 0.57 0.41 0.25
1.82 2.03 1.81 1.76 1.93 2.09 2.00 1.87 2.09 2.15 1.97 1.82 1.54 1.37 1.07 0.94 0.90 0.89 0.92 0.97 1.10 1.08 1.00 1.08 1.34 1.32 1.48 1.79 1.99 2.18 2.23 2.05 1.78 1.51 1.24 1.04 0.95 0.84 0.72 0.67 0.60 0.43 0.27
2.00 2.23 2.01 2.02 2.19 2.27 2.25 2.24 2.28 2.24 2.09 2.05 1.72 1.42 1.13 0.89 0.86 0.83 0.78 0.82 0.83 0.75 0.73 0.79 0.90 0.83 0.95 1.23 1.56 1.94 2.30 2.48 2.28 1.90 1.71 1.57 1.43 1.18 0.87 0.69 0.57 0.48 0.36
2.04 2.28 2.02 2.28 2.41 2.36 2.38 2.38 2.47 2.31 2.11 2.24 2.03 1.53 1.08 0.81 0.68 0.61 0.63 0.66 0.61 0.66 0.76 0.91 1.01 1.05 0.97 0.91 1.04 1.34 1.92 2.48 2.60 2.32 2.21 2.13 1.99 1.65 1.13 0.84 0.58 0.46 0.41
2.02 2.15 2.39 2.44 2.51 2.48 2.47 2.41 2.41 2.19 1.93 2.14 2.07 1.79 1.25 0.91 0.70 0.59 0.67 0.64 0.66 0.73 0.73 0.79 0.95 1.13 1.10 1.10 1.13 0.96 1.43 2.12 2.51 2.62 2.73 2.73 2.54 1.99 1.42 1.05 0.71 0.52 0.46
2.13 2.25 2.41 2.49 2.41 2.32 2.32 2.40 2.30 2.13 1.91 1.91 2.03 1.95 1.51 1.09 0.79 0.61 0.65 0.69 0.85 0.88 0.77 0.71 0.69 0.69 0.75 0.96 1.29 1.17 1.10 1.31 1.69 2.36 2.88 3.12 2.79 2.01 1.48 1.22 1.01 0.71 0.53
1.91 2.01 2.08 2.24 2.29 2.28 2.22 2.17 2.12 2.10 1.97 1.79 1.91 1.91 1.76 1.50 1.23 0.81 0.61 0.61 0.76 0.82 0.78 0.69 0.65 0.64 0.69 0.92 1.18 1.14 0.95 0.80 0.82 1.34 2.04 2.39 2.29 1.77 1.41 1.31 1.33 1.10 0.74
1.77 1.77 1.86 2.04 2.09 2.02 1.99 2.11 2.24 2.18 1.99 1.79 1.79 1.79 1.86 1.80 1.55 1.21 0.82 0.72 0.70 0.64 0.70 0.68 0.61 0.61 0.70 0.89 1.04 0.91 0.87 0.69 0.59 0.66 0.97 1.34 1.54 1.46 1.31 1.38 1.57 1.55 1.25
1.72 1.66 1.68 1.78 1.84 1.82 1.78 1.81 1.90 1.92 1.87 1.89 1.85 1.78 1.75 1.70 1.63 1.55 1.20 0.97 0.82 0.58 0.57 0.58 0.60 0.61 0.65 0.74 0.71 0.73 0.73 0.61 0.54 0.51 0.55 0.71 0.92 1.04 1.12 1.31 1.57 1.68 1.63
1.67 1.63 1.57 1.52 1.51 1.53 1.61 1.74 1.74 1.75 1.81 1.88 1.85 1.83 1.70 1.58 1.61 1.58 1.41 1.15 0.97 0.68 0.65 0.58 0.57 0.59 0.56 0.67 0.71 0.73 0.64 0.51 0.48 0.48 0.49 0.52 0.61 0.71 0.85 1.04 1.32 1.55 1.67
1.62 1.51 1.38 1.33 1.31 1.33 1.41 1.56 1.71 1.72 1.78 1.81 1.76 1.73 1.59 1.49 1.55 1.49 1.44 1.42 1.25 1.08 1.02 0.85 0.63 0.56 0.57 0.59 0.60 0.60 0.54 0.51 0.45 0.39 0.37 0.40 0.46 0.55 0.66 0.84 1.01 1.13 1.26
1.34 1.30 1.27 1.25 1.21 1.23 1.26 1.29 1.41 1.42 1.49 1.54 1.62 1.55 1.41 1.38 1.43 1.43 1.49 1.53 1.44 1.30 1.26 1.14 0.80 0.60 0.58 0.60 0.64 0.52 0.46 0.42 0.42 0.39 0.31 0.32 0.34 0.40 0.50 0.60 0.75 0.87 0.94
1.22 1.16 1.17 1.17 1.11 1.08 1.09 1.11 1.15 1.21 1.18 1.22 1.40 1.40 1.34 1.34 1.39 1.37 1.40 1.51 1.59 1.57 1.39 1.22 1.03 0.78 0.74 0.64 0.65 0.57 0.50 0.43 0.37 0.33 0.26 0.25 0.28 0.33 0.40 0.48 0.56 0.66 0.74
1.15 1.16 1.12 1.08 0.99 0.92 0.90 0.91 0.93 1.02 1.03 1.02 1.10 1.12 1.13 1.21 1.30 1.31 1.31 1.35 1.54 1.70 1.58 1.48 1.35 1.20 1.04 0.86 0.69 0.62 0.52 0.43 0.38 0.33 0.25 0.23 0.24 0.27 0.33 0.41 0.48 0.55 0.62
0.89 0.91 0.91 0.97 1.00 0.98 0.93 0.91 0.87 0.85 0.90 0.91 0.97 1.06 1.09 1.18 1.24 1.19 1.24 1.31 1.48 1.67 1.75 1.85 1.90 1.64 1.30 1.03 0.90 0.74 0.51 0.38 0.38 0.34 0.28 0.24 0.23 0.23 0.26 0.33 0.41 0.52 0.62
0.80 0.79 0.81 0.83 0.85 0.93 1.03 1.04 1.01 1.00 1.02 0.93 0.97 1.05 1.04 1.05 1.07 1.07 1.15 1.26 1.40 1.54 1.67 1.74 1.86 1.68 1.46 1.17 1.09 0.89 0.67 0.57 0.39 0.34 0.28 0.25 0.25 0.26 0.26 0.31 0.38 0.46 0.56
0.81 0.79 0.75 0.75 0.78 0.79 0.86 0.99 1.04 1.02 0.98 0.91 0.90 0.89 0.86 0.85 0.88 0.92 0.97 1.10 1.22 1.32 1.44 1.48 1.57 1.61 1.60 1.55 1.44 1.20 1.01 0.83 0.65 0.47 0.42 0.30 0.27 0.26 0.27 0.28 0.34 0.42 0.53
0.75 0.79 0.72 0.68 0.73 0.77 0.76 0.77 0.87 0.90 0.87 0.83 0.84 0.76 0.64 0.66 0.70 0.69 0.73 0.89 1.01 1.10 1.21 1.32 1.44 1.58 1.63 1.66 1.53 1.41 1.26 1.12 0.92 0.82 0.84 0.65 0.53 0.42 0.36 0.34 0.35 0.38 0.45
0.71 0.71 0.65 0.63 0.63 0.58 0.62 0.58 0.60 0.67 0.69 0.67 0.69 0.69 0.61 0.53 0.51 0.53 0.53 0.60 0.70 0.81 0.97 1.18 1.35 1.53 1.59 1.49 1.55 1.52 1.45 1.33 1.22 1.11 1.09 1.14 1.07 0.94 0.74 0.54 0.50 0.43 0.39
0.68 0.66 0.60 0.56 0.54 0.52 0.46 0.40 0.40 0.49 0.55 0.54 0.55 0.57 0.51 0.46 0.43 0.38 0.44 0.52 0.53 0.57 0.64 0.88 1.11 1.18 1.19 1.13 1.29 1.45 1.40 1.34 1.37 1.28 1.25 1.36 1.34 1.21 0.95 0.78 0.66 0.52 0.44
0.65 0.65 0.60 0.56 0.57 0.54 0.46 0.38 0.34 0.33 0.43 0.49 0.48 0.48 0.47 0.47 0.42 0.39 0.39 0.45 0.43 0.42 0.42 0.48 0.58 0.66 0.77 0.85 0.99 1.24 1.43 1.37 1.39 1.38 1.33 1.51 1.49 1.40 1.18 0.94 0.76 0.57 0.48
0.60 0.59 0.61 0.62 0.60 0.55 0.44 0.36 0.34 0.37 0.43 0.44 0.45 0.44 0.43 0.44 0.44 0.40 0.37 0.40 0.40 0.40 0.38 0.37 0.38 0.47 0.58 0.65 0.73 0.86 1.04 1.30 1.58 1.61 1.40 1.49 1.53 1.54 1.58 1.30 0.98 0.77 0.60
0.63 0.58 0.60 0.63 0.60 0.61 0.47 0.31 0.28 0.36 0.47 0.49 0.54 0.53 0.43 0.37 0.37 0.30 0.30 0.34 0.34 0.34 0.33 0.34 0.36 0.37 0.42 0.51 0.55 0.62 0.68 0.87 1.16 1.37 1.33 1.38 1.57 1.78 1.96 1.69 1.24 0.91 0.75

GEFSMA_prec_meanprecacc_108.txt.gz
Total_Precipitation_Accumulation
0.94 0.92 0.86 0.93 0.90 1.05 1.24 1.48 1.44 1.66 1.70 1.55 1.34 1.19 1.16 1.10 0.95 1.06 1.16 1.12 1.13 1.30 1.89 2.24 2.20 2.06 1.81 1.52 1.35 1.27 1.19 1.02 0.85 0.63 0.55 0.56 0.59 0.64 0.56 0.43 0.36 0.29 0.23
1.47 1.36 1.18 1.21 1.13 1.24 1.52 1.73 1.70 1.99 1.88 1.80 1.47 1.36 1.24 1.14 1.08 1.21 1.30 1.36 1.37 1.46 1.75 2.15 2.38 2.31 2.07 1.75 1.49 1.31 1.26 1.20 1.07 0.79 0.63 0.60 0.64 0.69 0.65 0.56 0.45 0.35 0.27
1.81 1.67 1.46 1.37 1.46 1.60 1.79 1.83 1.88 2.07 1.89 1.82 1.62 1.49 1.29 1.13 1.09 1.24 1.38 1.50 1.37 1.37 1.60 1.92 2.22 2.22 2.07 1.89 1.66 1.52 1.39 1.30 1.25 1.01 0.74 0.63 0.62 0.66 0.66 0.64 0.53 0.40 0.27
1.93 1.97 1.71 1.52 1.77 1.90 2.02 2.10 2.07 2.07 2.02 1.93 1.77 1.47 1.32 1.17 1.02 1.11 1.18 1.30 1.36 1.11 1.30 1.75 1.86 1.78 1.86 1.94 1.93 1.97 1.85 1.59 1.46 1.21 0.92 0.75 0.70 0.70 0.68 0.66 0.57 0.41 0.25
1.98 2.18 1.95 1.88 2.04 2.21 2.14 2.01 2.23 2.30 2.13 2.02 1.76 1.58 1.24 1.09 1.02 1.00 1.03 1.05 1.17 1.14 1.06 1.20 1.54 1.50 1.68 2.00 2.16 2.30 2.31 2.11 1.82 1.54 1.25 1.04 0.95 0.85 0.73 0.68 0.61 0.43 0.28
2.10 2.33 2.10 2.11 2.28 2.37 2.36 2.36 2.40 2.36 2.21 2.19 1.89 1.59 1.28 1.02 0.98 0.94 0.88 0.90 0.90 0.80 0.80 0.86 1.02 0.99 1.16 1.46 1.77 2.11 2.42 2.57 2.34 1.93 1.74 1.59 1.45 1.19 0.89 0.70 0.58 0.49 0.36
2.08 2.32 2.06 2.33 2.46 2.40 2.43 2.44 2.55 2.41 2.24 2.37 2.19 1.68 1.22 0.94 0.80 0.71 0.72 0.75 0.69 0.74 0.84 0.99 1.11 1.16 1.08 1.08 1.22 1.53 2.07 2.59 2.67 2.38 2.25 2.17 2.03 1.67 1.15 0.85 0.60 0.48 0.43
2.04 2.17 2.41 2.46 2.53 2.50 2.49 2.44 2.44 2.23 2.02 2.26 2.22 1.95 1.40 1.04 0.79 0.67 0.75 0.71 0.72 0.80 0.81 0.86 1.04 1.22 1.18 1.18 1.19 1.10 1.61 2.29 2.63 2.71 2.79 2.78 2.58 2.02 1.43 1.07 0.72 0.53 0.47
2.16 2.29 2.44 2.51 2.42 2.34 2.34 2.42 2.32 2.17 1.98 2.02 2.16 2.09 1.62 1.16 0.86 0.68 0.72 0.76 0.91 0.94 0.83 0.78 0.74 0.74 0.81 1.03 1.34 1.25 1.25 1.46 1.85 2.51 2.99 3.20 2.84 2.04 1.49 1.23 1.02 0.73 0.54
1.93 2.04 2.11 2.26 2.31 2.30 2.24 2.20 2.15 2.14 2.03 1.89 2.04 2.03 1.85 1.55 1.29 0.86 0.66 0.67 0.83 0.87 0.84 0.74 0.69 0.68 0.73 0.96 1.23 1.19 1.03 0.88 0.92 1.48 2.19 2.51 2.36 1.81 1.44 1.34 1.36 1.14 0.76
1.79 1.78 1.88 2.06 2.12 2.04 2.01 2.14 2.26 2.21 2.04 1.87 1.92 1.95 2.01 1.90 1.61 1.27 0.87 0.77 0.75 0.68 0.75 0.73 0.67 0.67 0.75 0.93 1.08 0.95 0.93 0.76 0.66 0.75 1.10 1.47 1.65 1.53 1.36 1.43 1.64 1.62 1.29
1.73 1.67 1.69 1.80 1.86 1.84 1.80 1.83 1.92 1.94 1.90 1.94 1.94 1.93 1.96 1.89 1.76 1.65 1.27 1.03 0.88 0.63 0.63 0.64 0.66 0.66 0.71 0.79 0.75 0.77 0.77 0.65 0.58 0.56 0.62 0.80 1.01 1.13 1.20 1.38 1.65 1.77 1.71
1.67 1.64 1.58 1.53 1.53 1.55 1.63 1.76 1.76 1.77 1.83 1.91 1.90 1.92 1.84 1.75 1.77 1.72 1.52 1.25 1.06 0.75 0.72 0.64 0.62 0.64 0.61 0.71 0.74 0.77 0.67 0.55 0.51 0.50 0.53 0.57 0.67 0.78 0.92 1.11 1.40 1.65 1.79
1.62 1.51 1.38 1.33 1.32 1.34 1.42 1.57 1.72 1.72 1.79 1.82 1.79 1.79 1.69 1.61 1.70 1.63 1.56 1.53 1.35 1.16 1.09 0.91 0.69 0.62 0.63 0.64 0.65 0.66 0.58 0.55 0.48 0.42 0.40 0.43 0.52 0.60 0.71 0.88 1.06 1.19 1.33
1.34 1.30 1.27 1.25 1.21 1.23 1.27 1.29 1.42 1.43 1.50 1.55 1.63 1.59 1.48 1.48 1.55 1.57 1.61 1.64 1.54 1.40 1.35 1.20 0.87 0.67 0.66 0.67 0.72 0.58 0.49 0.46 0.45 0.42 0.34 0.34 0.37 0.45 0.53 0.64 0.79 0.93 0.98
1.22 1.16 1.17 1.17 1.11 1.09 1.10 1.12 1.16 1.22 1.19 1.24 1.41 1.43 1.39 1.41 1.50 1.52 1.55 1.64 1.70 1.67 1.48 1.30 1.10 0.85 0.81 0.71 0.72 0.63 0.55 0.48 0.41 0.37 0.29 0.27 0.30 0.35 0.44 0.52 0.60 0.71 0.78
1.15 1.16 1.13 1.08 0.99 0.92 0.91 0.92 0.94 1.04 1.04 1.03 1.11 1.14 1.18 1.27 1.39 1.45 1.47 1.50 1.66 1.81 1.67 1.57 1.43 1.29 1.12 0.93 0.74 0.67 0.57 0.47 0.42 0.37 0.29 0.26 0.27 0.30 0.36 0.44 0.52 0.59 0.66
0.89 0.91 0.91 0.97 1.00 0.98 0.94 0.92 0.88 0.87 0.91 0.92 0.99 1.08 1.13 1.25 1.32 1.30 1.40 1.47 1.62 1.80 1.87 1.97 2.02 1.74 1.40 1.13 0.98 0.81 0.56 0.41 0.41 0.36 0.30 0.27 0.25 0.26 0.28 0.35 0.43 0.55 0.64
0.80 0.79 0.81 0.83 0.85 0.93 1.04 1.05 1.02 1.01 1.03 0.94 0.99 1.08 1.07 1.10 1.16 1.17 1.27 1.41 1.56 1.67 1.79 1.87 2.00 1.82 1.58 1.27 1.18 0.96 0.72 0.61 0.41 0.36 0.29 0.26 0.26 0.28 0.28 0.33 0.40 0.48 0.58
0.81 0.79 0.75 0.76 0.78 0.79 0.86 0.99 1.04 1.03 0.99 0.93 0.92 0.92 0.90 0.89 0.95 1.01 1.07 1.21 1.37 1.47 1.56 1.59 1.70 1.76 1.75 1.68 1.54 1.28 1.07 0.86 0.67 0.48 0.43 0.31 0.28 0.27 0.28 0.30 0.36 0.44 0.55
0.75 0.79 0.72 0.68 0.73 0.77 0.76 0.78 0.88 0.91 0.88 0.85 0.85 0.77 0.67 0.69 0.74 0.76 0.82 0.99 1.12 1.23 1.35 1.43 1.56 1.71 1.78 1.82 1.66 1.51 1.34 1.18 0.95 0.83 0.85 0.66 0.53 0.42 0.36 0.35 0.36 0.39 0.47
0.71 0.71 0.65 0.63 0.63 0.58 0.62 0.59 0.60 0.67 0.69 0.68 0.71 0.71 0.63 0.56 0.54 0.57 0.60 0.68 0.79 0.91 1.09 1.29 1.46 1.64 1.71 1.65 1.71 1.65 1.54 1.41 1.27 1.14 1.11 1.15 1.08 0.94 0.74 0.54 0.50 0.44 0.40
0.68 0.66 0.61 0.56 0.54 0.52 0.46 0.41 0.41 0.50 0.56 0.55 0.56 0.60 0.54 0.49 0.45 0.41 0.48 0.57 0.59 0.64 0.72 0.98 1.21 1.28 1.29 1.26 1.43 1.58 1.50 1.42 1.43 1.33 1.27 1.38 1.34 1.21 0.95 0.79 0.67 0.52 0.44
0.65 0.65 0.60 0.56 0.57 0.54 0.46 0.38 0.34 0.33 0.43 0.50 0.49 0.50 0.50 0.50 0.46 0.43 0.42 0.48 0.47 0.46 0.47 0.54 0.65 0.74 0.87 0.96 1.12 1.38 1.56 1.47 1.46 1.42 1.36 1.53 1.50 1.41 1.18 0.94 0.77 0.57 0.49
0.60 0.59 0.61 0.62 0.60 0.55 0.44 0.36 0.34 0.38 0.43 0.45 0.46 0.47 0.47 0.48 0.48 0.44 0.40 0.41 0.42 0.43 0.41 0.41 0.43 0.53 0.66 0.75 0.85 1.00 1.19 1.41 1.66 1.66 1.43 1.52 1.55 1.55 1.58 1.30 0.98 0.78 0.60
0.63 0.58 0.60 0.63 0.60 0.62 0.47 0.31 0.28 0.37 0.47 0.49 0.55 0.55 0.46 0.41 0.40 0.33 0.31 0.35 0.35 0.35 0.34 0.36 0.38 0.40 0.47 0.58 0.64 0.73 0.80 0.99 1.24 1.43 1.38 1.42 1.59 1.79 1.96 1.69 1.24 0.91 0.75

GEFSMA_prec_meanprecacc_114.txt.gz
Total_Precipitation_Accumulation
1.07 1.07 0.99 1.03 0.98 1.13 1.32 1.60 1.58 1.82 1.87 1.69 1.45 1.29 1.24 1.18 1.01 1.09 1.19 1.16 1.19 1.37 1.99 2.40 2.38 2.20 1.91 1.59 1.39 1.31 1.22 1.04 0.87 0.65 0.56 0.58 0.61 0.65 0.57 0.43 0.36 0.29 0.23
1.68 1.60 1.37 1.33 1.22 1.32 1.61 1.85 1.86 2.16 2.05 1.98 1.63 1.50 1.35 1.24 1.17 1.27 1.34 1.40 1.43 1.53 1.84 2.28 2.54 2.48 2.22 1.85 1.56 1.35 1.29 1.23 1.10 0.81 0.64 0.61 0.65 0.70 0.66 0.56 0.45 0.35 0.27
2.00 1.86 1.66 1.52 1.61 1.75 1.91 1.95 2.03 2.26 2.05 1.99 1.79 1.66 1.44 1.24 1.19 1.33 1.44 1.55 1.42 1.43 1.68 2.02 2.36 2.37 2.24 2.04 1.77 1.59 1.44 1.32 1.28 1.03 0.76 0.64 0.64 0.67 0.67 0.64 0.54 0.40 0.27
2.08 2.11 1.84 1.66 1.90 2.03 2.14 2.22 2.22 2.24 2.18 2.10 1.94 1.65 1.48 1.30 1.13 1.22 1.27 1.37 1.43 1.16 1.37 1.83 1.97 1.91 2.00 2.11 2.09 2.10 1.93 1.64 1.48 1.23 0.94 0.77 0.71 0.71 0.69 0.67 0.58 0.41 0.25
2.07 2.28 2.05 2.00 2.16 2.34 2.26 2.10 2.34 2.42 2.27 2.18 1.94 1.76 1.40 1.22 1.14 1.10 1.12 1.13 1.25 1.20 1.12 1.28 1.66 1.62 1.82 2.14 2.34 2.49 2.45 2.20 1.87 1.57 1.27 1.06 0.97 0.86 0.73 0.68 0.62 0.43 0.28
2.15 2.39 2.17 2.19 2.36 2.47 2.45 2.44 2.48 2.45 2.31 2.30 2.00 1.72 1.41 1.12 1.08 1.02 0.95 0.98 0.98 0.87 0.86 0.93 1.14 1.10 1.28 1.59 1.94 2.30 2.59 2.71 2.42 1.98 1.77 1.60 1.46 1.20 0.89 0.71 0.58 0.49 0.37
2.11 2.37 2.11 2.38 2.51 2.45 2.49 2.50 2.61 2.47 2.30 2.46 2.28 1.76 1.31 1.05 0.89 0.79 0.80 0.82 0.76 0.81 0.92 1.07 1.21 1.28 1.18 1.20 1.35 1.69 2.26 2.77 2.81 2.45 2.29 2.19 2.04 1.68 1.16 0.86 0.61 0.48 0.43
2.07 2.21 2.46 2.51 2.57 2.54 2.53 2.47 2.48 2.27 2.06 2.32 2.30 2.04 1.48 1.13 0.86 0.73 0.82 0.77 0.78 0.88 0.89 0.95 1.13 1.33 1.29 1.31 1.28 1.18 1.73 2.45 2.80 2.83 2.86 2.81 2.60 2.03 1.44 1.07 0.73 0.53 0.47
2.19 2.32 2.49 2.56 2.47 2.38 2.38 2.45 2.34 2.20 2.01 2.07 2.25 2.20 1.73 1.28 0.95 0.75 0.78 0.81 0.97 1.01 0.90 0.86 0.83 0.85 0.92 1.17 1.47 1.33 1.34 1.58 2.01 2.69 3.13 3.27 2.89 2.06 1.50 1.24 1.03 0.73 0.54
1.95 2.06 2.13 2.28 2.33 2.31 2.26 2.22 2.18 2.17 2.07 1.93 2.11 2.14 1.96 1.67 1.41 0.97 0.74 0.75 0.90 0.95 0.90 0.81 0.77 0.77 0.85 1.09 1.35 1.27 1.10 0.96 1.02 1.65 2.37 2.65 2.46 1.86 1.46 1.35 1.37 1.14 0.76
1.79 1.79 1.89 2.07 2.13 2.06 2.03 2.16 2.30 2.26 2.08 1.92 1.99 2.05 2.15 2.03 1.72 1.38 0.97 0.86 0.84 0.76 0.83 0.82 0.75 0.76 0.85 1.05 1.21 1.04 1.01 0.85 0.74 0.85 1.25 1.64 1.79 1.63 1.42 1.46 1.67 1.64 1.31
1.73 1.67 1.70 1.81 1.88 1.86 1.83 1.87 1.96 1.98 1.94 1.99 2.01 2.01 2.07 2.03 1.90 1.78 1.37 1.12 0.97 0.72 0.72 0.74 0.75 0.75 0.79 0.89 0.83 0.82 0.84 0.73 0.66 0.64 0.71 0.92 1.15 1.25 1.28 1.46 1.72 1.83 1.76
1.68 1.64 1.58 1.53 1.54 1.56 1.65 1.79 1.81 1.81 1.87 1.95 1.95 1.99 1.92 1.85 1.90 1.88 1.68 1.38 1.17 0.84 0.81 0.73 0.71 0.73 0.70 0.82 0.84 0.84 0.73 0.60 0.57 0.57 0.60 0.64 0.76 0.87 1.00 1.19 1.49 1.74 1.87
1.62 1.51 1.38 1.34 1.32 1.35 1.43 1.59 1.75 1.76 1.83 1.86 1.82 1.83 1.74 1.68 1.79 1.76 1.71 1.69 1.48 1.27 1.19 1.01 0.77 0.70 0.72 0.75 0.76 0.75 0.66 0.60 0.53 0.47 0.45 0.49 0.57 0.66 0.76 0.93 1.11 1.25 1.39
1.34 1.30 1.27 1.25 1.21 1.24 1.28 1.31 1.43 1.45 1.53 1.58 1.66 1.62 1.52 1.53 1.62 1.65 1.73 1.78 1.70 1.54 1.46 1.31 0.97 0.75 0.75 0.77 0.83 0.69 0.61 0.53 0.50 0.47 0.38 0.38 0.41 0.49 0.58 0.68 0.83 0.97 1.01
1.23 1.17 1.17 1.17 1.12 1.10 1.11 1.14 1.18 1.23 1.21 1.26 1.44 1.46 1.43 1.45 1.55 1.58 1.64 1.76 1.83 1.82 1.63 1.44 1.25 0.95 0.90 0.81 0.83 0.76 0.69 0.58 0.48 0.42 0.35 0.33 0.34 0.39 0.48 0.56 0.64 0.76 0.83
1.15 1.16 1.13 1.09 0.99 0.93 0.92 0.94 0.96 1.05 1.06 1.05 1.13 1.16 1.22 1.31 1.44 1.51 1.54 1.60 1.79 1.94 1.81 1.71 1.57 1.42 1.23 1.05 0.86 0.80 0.72 0.62 0.51 0.43 0.35 0.32 0.33 0.35 0.39 0.48 0.56 0.64 0.71
0.90 0.91 0.92 0.98 1.00 0.99 0.95 0.93 0.90 0.88 0.93 0.95 1.01 1.10 1.16 1.29 1.37 1.36 1.46 1.54 1.73 1.94 2.00 2.12 2.16 1.89 1.56 1.29 1.14 0.95 0.70 0.55 0.52 0.43 0.36 0.33 0.32 0.33 0.34 0.39 0.46 0.58 0.68
0.80 0.80 0.81 0.84 0.86 0.94 1.05 1.06 1.03 1.03 1.06 0.98 1.02 1.11 1.10 1.14 1.21 1.23 1.35 1.49 1.64 1.79 1.95 2.05 2.18 1.98 1.76 1.45 1.38 1.15 0.90 0.76 0.53 0.45 0.37 0.33 0.33 0.34 0.34 0.39 0.44 0.51 0.60
0.82 0.80 0.76 0.76 0.79 0.81 0.88 1.01 1.06 1.06 1.02 0.97 0.96 0.96 0.93 0.94 1.01 1.08 1.15 1.31 1.46 1.60 1.72 1.77 1.91 1.97 1.96 1.88 1.75 1.48 1.27 1.04 0.79 0.57 0.50 0.36 0.34 0.33 0.34 0.36 0.40 0.47 0.58
0.76 0.80 0.72 0.69 0.74 0.79 0.77 0.79 0.90 0.93 0.92 0.89 0.90 0.82 0.71 0.72 0.77 0.80 0.86 1.07 1.22 1.35 1.51 1.61 1.75 1.91 2.00 2.06 1.89 1.73 1.57 1.39 1.11 0.93 0.92 0.71 0.57 0.46 0.40 0.39 0.40 0.43 0.50
0.71 0.71 0.65 0.64 0.64 0.59 0.62 0.59 0.61 0.69 0.73 0.73 0.76 0.76 0.69 0.60 0.57 0.59 0.62 0.73 0.88 1.02 1.24 1.47 1.65 1.86 1.93 1.87 1.95 1.89 1.78 1.64 1.49 1.28 1.19 1.21 1.12 0.97 0.77 0.56 0.52 0.46 0.41
0.69 0.67 0.61 0.57 0.55 0.54 0.46 0.41 0.41 0.51 0.59 0.60 0.62 0.66 0.60 0.54 0.50 0.46 0.52 0.61 0.66 0.72 0.83 1.12 1.38 1.50 1.49 1.45 1.64 1.82 1.75 1.64 1.63 1.51 1.41 1.48 1.41 1.26 0.98 0.81 0.68 0.54 0.46
0.66 0.66 0.61 0.58 0.59 0.55 0.46 0.38 0.34 0.34 0.46 0.54 0.54 0.57 0.58 0.59 0.53 0.51 0.50 0.55 0.54 0.53 0.55 0.65 0.78 0.90 1.04 1.14 1.32 1.61 1.81 1.72 1.71 1.63 1.53 1.67 1.61 1.48 1.22 0.96 0.78 0.58 0.50
0.61 0.60 0.63 0.63 0.62 0.58 0.45 0.36 0.34 0.40 0.48 0.49 0.50 0.52 0.54 0.57 0.56 0.48 0.46 0.49 0.51 0.52 0.48 0.51 0.55 0.66 0.79 0.90 1.03 1.22 1.45 1.67 1.91 1.88 1.61 1.66 1.64 1.63 1.64 1.33 1.00 0.79 0.61
0.64 0.59 0.61 0.64 0.62 0.64 0.48 0.32 0.29 0.40 0.53 0.56 0.61 0.60 0.50 0.47 0.47 0.37 0.37 0.42 0.42 0.43 0.40 0.45 0.50 0.53 0.58 0.69 0.77 0.90 1.01 1.21 1.46 1.62 1.54 1.56 1.69 1.87 2.03 1.74 1.27 0.92 0.76